EW8311 Weather Reports


time (UTC)temp
C
wind
direction
speed
KPH
gust
KPH
rain 1hr
cm
rain 24hr
cm
rain mn
cm
humidity
%
barometer
mb
20260508113051 16 328 0.0 0.0 0.00 0.00 0.00 41 1007.1
20260508111542 17 328 0.0 0.0 0.00 0.00 0.00 39 1007.0
20260508110054 18 328 0.0 4.8 0.00 0.00 0.00 36 1006.9
20260508104540 17 342 1.6 3.2 0.00 0.00 0.00 38 1007.0
20260508103040 17 349 1.6 3.2 0.00 0.00 0.00 39 1006.9
20260508101549 16 337 1.6 3.2 0.00 0.00 0.00 42 1007.0
20260508100039 16 122 0.0 1.6 0.00 0.00 0.00 44 1006.9
20260508094549 16 122 0.0 0.0 0.00 0.00 0.00 44 1006.9
20260508093049 16 122 0.0 0.0 0.00 0.00 0.00 43 1006.9
20260508091532 17 122 0.0 0.0 0.00 0.00 0.00 42 1007.0
20260508090037 17 122 0.0 0.0 0.00 0.00 0.00 36 1007.0
20260508084526 18 122 0.0 1.6 0.00 0.00 0.00 32 1007.1
20260508083027 18 130 0.0 0.0 0.00 0.00 0.00 33 1007.3
20260508081523 18 130 0.0 1.6 0.00 0.00 0.00 33 1007.4
20260508080033 18 132 0.0 0.0 0.00 0.00 0.00 35 1007.5
20260508074523 18 132 0.0 1.6 0.00 0.00 0.00 32 1007.5
20260508073020 18 132 0.0 1.6 0.00 0.00 0.00 33 1007.8
20260508071516 18 132 0.0 0.0 0.00 0.00 0.00 35 1007.7
20260508070013 18 135 0.0 1.6 0.00 0.00 0.00 39 1007.8
20260508064513 20 257 0.0 3.2 0.00 0.00 0.00 34 1007.8
20260508063012 20 329 0.0 1.6 0.00 0.00 0.00 32 1008.0
20260508061512 20 329 0.0 3.2 0.00 0.00 0.00 32 1008.0
20260508060011 19 62 0.0 1.6 0.00 0.00 0.00 36 1008.0
20260508054511 19 76 0.0 1.6 0.00 0.00 0.00 35 1008.1
20260508053011 20 76 0.0 1.6 0.00 0.00 0.00 36 1008.0
20260508051509 20 93 0.0 1.6 0.00 0.00 0.00 32 1008.0
20260508050009 21 93 0.0 1.6 0.00 0.00 0.00 31 1008.0
20260508044513 21 93 0.0 0.0 0.00 0.00 0.00 28 1007.9
20260508043008 22 93 0.0 4.8 0.00 0.00 0.00 27 1007.8
20260508041508 22 94 0.0 4.8 0.00 0.00 0.00 25 1007.5
20260508040009 22 105 0.0 3.2 0.00 0.00 0.00 25 1007.5
20260508034506 22 290 0.0 0.0 0.00 0.00 0.00 27 1007.0
20260508033015 23 287 0.0 0.0 0.00 0.00 0.00 25 1006.7
20260508031505 23 287 0.0 6.4 0.00 0.00 0.00 24 1006.5
20260508030005 24 259 0.0 8.0 0.00 0.00 0.00 22 1006.4
20260508024504 25 323 6.4 19.3 0.00 0.00 0.00 20 1005.8
20260508023003 26 333 6.4 16.1 0.00 0.00 0.00 18 1005.3
20260508021503 27 347 8.0 17.7 0.00 0.00 0.00 14 1004.7
20260508020004 28 313 8.0 0.0 0.00 0.00 0.00 14 1004.3
20260508014505 28 323 4.8 20.9 0.00 0.00 0.00 13 1004.0
20260508013110 30 308 11.3 25.7 0.00 0.00 0.00 13 1003.9
20260508011603 30 325 1.6 6.4 0.00 0.00 0.00 13 1003.9
20260508010057 31 328 3.2 8.0 0.00 0.00 0.00 12 1003.8
20260508004600 30 305 3.2 9.7 0.00 0.00 0.00 12 1003.7
20260508003106 31 289 4.8 11.3 0.00 0.00 0.00 12 1003.6
20260508001555 30 328 6.4 14.5 0.00 0.00 0.00 12 1003.5
20260508000053 31 322 1.6 4.8 0.00 0.00 0.00 12 1003.6
20260507234553 30 282 1.6 4.8 0.00 0.00 0.00 12 1003.7
20260507233052 28 319 3.2 8.0 0.00 0.00 0.00 14 1003.8
20260507231556 30 309 3.2 9.7 0.00 0.00 0.00 13 1003.9
20260507230048 31 274 3.2 12.9 0.00 0.00 0.00 12 1003.9
20260507224558 31 103 0.0 16.1 0.00 0.00 0.00 12 1004.1
20260507223048 31 226 6.4 16.1 0.00 0.00 0.00 11 1004.1
20260507221544 31 279 1.6 12.9 0.00 0.00 0.00 13 1004.3
20260507220041 31 137 3.2 14.5 0.00 0.00 0.00 11 1004.4
20260507214541 30 260 3.2 12.9 0.00 0.00 0.00 13 1004.7
20260507213037 30 105 6.4 12.9 0.00 0.00 0.00 11 1005.0
20260507211534 31 70 6.4 12.9 0.00 0.00 0.00 12 1005.1
20260507210058 30 13 1.6 9.7 0.00 0.00 0.00 13 1005.5
20260507204528 29 281 0.0 4.8 0.00 0.00 0.00 13 1005.7
20260507203028 29 131 4.8 16.1 0.00 0.00 0.00 12 1006.0
20260507201532 30 290 1.6 8.0 0.00 0.00 0.00 13 1006.1
20260507200038 30 279 0.0 8.0 0.00 0.00 0.00 13 1006.2
20260507194521 29 261 0.0 8.0 0.00 0.00 0.00 13 1006.3
20260507193026 29 314 0.0 17.7 0.00 0.00 0.00 14 1006.6
20260507191524 28 75 6.4 11.3 0.00 0.00 0.00 13 1006.7
20260507190023 28 320 3.2 17.7 0.00 0.00 0.00 14 1006.9
20260507184513 28 108 0.0 9.7 0.00 0.00 0.00 14 1007.1
20260507183009 27 308 3.2 11.3 0.00 0.00 0.00 16 1007.2
20260507181506 27 328 1.6 6.4 0.00 0.00 0.00 19 1007.5
20260507180001 27 256 1.6 8.0 0.00 0.00 0.00 19 1007.9
20260507174608 26 277 1.6 9.7 0.00 0.00 0.00 22 1008.1
20260507173131 26 304 3.2 6.4 0.00 0.00 0.00 22 1008.4
20260507171552 25 254 1.6 8.0 0.00 0.00 0.00 22 1008.5
20260507170052 24 323 1.6 6.4 0.00 0.00 0.00 25 1008.7
20260507164553 23 328 0.0 6.4 0.00 0.00 0.00 26 1008.8
20260507163042 22 288 1.6 8.0 0.00 0.00 0.00 25 1009.0
20260507161540 22 251 1.6 8.0 0.00 0.00 0.00 26 1009.1
20260507160057 22 259 0.0 6.4 0.00 0.00 0.00 27 1009.3
20260507154535 21 321 1.6 6.4 0.00 0.00 0.00 29 1009.3
20260507153033 20 274 0.0 1.6 0.00 0.00 0.00 30 1009.5
20260507151529 20 224 0.0 1.6 0.00 0.00 0.00 32 1009.5
20260507150025 19 136 0.0 0.0 0.00 0.00 0.00 34 1009.7
20260507144532 19 108 0.0 1.6 0.00 0.00 0.00 35 1009.6
20260507143020 18 170 0.0 0.0 0.00 0.00 0.00 36 1009.8
20260507141523 18 176 0.0 0.0 0.00 0.00 0.00 39 1009.8
20260507140014 17 176 0.0 0.0 0.00 0.00 0.00 43 1009.8
20260507134512 16 46 0.0 0.0 0.00 0.00 0.00 45 1009.7
20260507133013 13 46 0.0 0.0 0.00 0.00 0.00 51 1009.7
20260507131510 12 46 0.0 0.0 0.00 0.00 0.00 52 1009.7
20260507130024 13 46 0.0 0.0 0.00 0.00 0.00 49 1009.4
20260507124512 12 46 0.0 0.0 0.00 0.00 0.00 47 1009.3
20260507123008 12 20 0.0 0.0 0.00 0.00 0.00 50 1009.2
20260507121508 12 20 0.0 0.0 0.00 0.00 0.00 49 1009.1
20260507120010 12 20 0.0 1.6 0.00 0.00 0.00 50 1009.3
20260507114504 12 349 0.0 0.0 0.00 0.00 0.00 49 1009.3